Flag for Pakistan Weather past 2 weeks in Narowal, Pakistan

Now
46 °F

Fog.


Feels Like: 46 °F
Forecast: 40 / 62 °F
Wind: No wind

Location: Amritsar Airport

Current Time: Dec 26, 2014 at 4:00:53 AM

Latest Report: Dec 26, 2014 at 3:00 AM


Visibility: 0 mi

Pressure: 30.09 "Hg

Humidity: 100%

Dew point: 46 °F

Location of NarowalLocation

Historic Weather in Narowal — Graph

°F

Narowal temperature yesterday

Maximum temperature yesterday: 54 °F (at 2:30 PM)
Minimum temperature yesterday: 41 °F (at 12:00 AM)
Average temperature yesterday: 46 °F

Past Weeks' High & Low Weather Summary

 TemperatureHumidityPressure
High70 °F (Dec 11, 2:30 PM)100% (Dec 14, 7:00 AM)30.27 "Hg (Dec 14, 7:00 AM)
Low37 °F (Dec 16, 7:00 AM)23% (Dec 11, 2:30 PM)29.71 "Hg (Dec 22, 1:00 PM)
Average50 °F86%30.10 "Hg
* Reported Dec 11 2:00 AM — Dec 26 2:30 AM, Narowal, Weather by CustomWeather, © 2014

Note: Actual official high and low records may vary slightly from our data, if they occured in-between our weather recording intervals... More about our weather records

Advertising

Narowal weather history for previous 24 hours

 ConditionsComfort  
Time TempWeatherWind HumidityBarometerVisibility
2:30 AM
Dec 26
46 °FFog.No wind100%30.09 "Hg0 mi
2:00 AM46 °FFog.No wind100%30.09 "Hg0 mi
1:30 AM46 °FFog.No wind100%30.09 "Hg0 mi
1:00 AM46 °FFog.No wind100%30.09 "Hg0 mi
12:30 AM46 °FFog.No wind100%30.09 "Hg0 mi
11:30 PM
Dec 25
46 °FFog.No wind100%30.12 "Hg0 mi
11:00 PM46 °FFog.No wind100%30.12 "Hg0 mi
10:30 PM46 °FFog.No wind100%30.12 "Hg0 mi
10:00 PM46 °FFog.No wind100%30.12 "Hg0 mi
9:30 PM48 °FFog.No wind100%30.12 "Hg0 mi
9:00 PM48 °FFog.No wind100%30.12 "Hg0 mi
8:00 PM46 °FFog.No wind100%30.12 "Hg0 mi
7:30 PM46 °FFog.No wind100%30.12 "Hg0 mi
7:00 PM46 °FFog.No wind100%30.12 "Hg0 mi
6:30 PM46 °FFog.No wind100%30.09 "Hg0 mi
5:00 PM48 °FFog.No wind94%30.07 "Hg0 mi
2:30 PM54 °FFog.2 mph82%30.09 "Hg1 mi
2:00 PM52 °FFog.5 mph88%30.09 "Hg1 mi
1:30 PM52 °FFog.3 mph88%30.12 "Hg1 mi
1:00 PM50 °FFog.1 mph88%30.12 "Hg0 mi
12:30 PM48 °FFog.1 mph94%30.15 "Hg0 mi
12:00 PM48 °FFog.1 mph100%30.15 "Hg0 mi
11:30 AM46 °FFog.No wind100%30.18 "Hg0 mi
10:30 AM45 °FFog.No wind100%30.18 "Hg0 mi
9:30 AM45 °FFog.3 mph100%30.18 "Hg0 mi
9:00 AM45 °FFog.No wind100%30.15 "Hg0 mi
8:00 AM45 °FFog.3 mph100%30.12 "Hg0 mi
7:30 AM43 °FFog.No wind100%30.12 "Hg0 mi
7:00 AM43 °FFog.No wind100%30.09 "Hg0 mi
6:30 AM43 °FFog.No wind100%30.09 "Hg0 mi
6:00 AM43 °FFog.No wind100%30.09 "Hg0 mi
5:30 AM43 °FFog.No wind100%30.09 "Hg0 mi
5:00 AM43 °FFog.No wind100%30.09 "Hg0 mi
4:30 AM43 °FFog.No wind100%30.09 "Hg0 mi
4:00 AM43 °FFog.No wind100%30.09 "Hg0 mi
Weather by CustomWeather, © 2014

See weather overviewHow to use our weather pages